EW2827 Weather Reports


time (UTC)temp
C
wind
direction
speed
KPH
gust
KPH
rain 1hr
cm
rain 24hr
cm
rain mn
cm
humidity
%
barometer
mb
20260510011505 19 178 3.2 11.3 0.00 0.00 0.00 68 1012.4
20260510005542 17 288 1.6 6.4 0.00 0.00 0.00 74 1012.6
20260510005506 18 194 1.6 4.8 0.00 0.00 0.00 72 1012.6
20260510003501 16 288 1.6 6.4 0.00 0.00 0.00 75 1012.6
20260510003001 16 276 1.6 6.4 0.00 0.00 0.00 78 1012.6
20260510001459 15 276 1.6 9.7 0.00 0.00 0.00 80 1012.5
20260510000511 14 273 1.6 6.4 0.00 0.00 0.00 83 1012.5
20260509235510 13 263 1.6 4.8 0.00 0.00 0.00 85 1012.4
20260509235459 13 223 1.6 4.8 0.00 0.00 0.00 84 1012.4
20260509234000 13 272 1.6 6.4 0.00 0.00 0.00 87 1012.3
20260509232459 12 275 0.0 4.8 0.00 0.00 0.00 88 1012.4
20260509231501 12 206 1.6 4.8 0.00 0.00 0.00 89 1012.4
20260509230507 12 211 0.0 3.2 0.00 0.00 0.00 90 1012.3
20260509225955 11 211 0.0 4.8 0.00 0.00 0.00 91 1012.3
20260509224454 11 211 1.6 6.4 0.00 0.00 0.00 92 1012.3
20260509223453 11 192 1.6 6.4 0.00 0.00 0.00 92 1012.4
20260509222454 10 173 0.0 6.4 0.00 0.00 0.00 92 1012.3
20260509221452 10 311 0.0 3.2 0.00 0.00 0.00 92 1012.2
20260509220506 10 311 0.0 3.2 0.00 0.00 0.00 92 1012.2
20260509215452 10 311 0.0 3.2 0.00 0.00 0.00 92 1012.2
20260509214452 10 311 0.0 3.2 0.00 0.00 0.00 92 1012.0
20260509213446 10 311 0.0 1.6 0.00 0.00 0.00 91 1011.9
20260509212445 10 311 0.0 1.6 0.00 0.00 0.00 91 1011.7
20260509211446 10 311 0.0 0.0 0.00 0.00 0.00 90 1011.6
20260509210444 10 311 0.0 1.6 0.00 0.00 0.00 90 1011.4
20260509205446 10 311 0.0 3.2 0.00 0.00 0.00 90 1011.3
20260509204447 10 311 0.0 3.2 0.00 0.00 0.00 90 1011.2
20260509203447 10 311 0.0 1.6 0.00 0.00 0.00 90 1011.1
20260509202947 10 311 0.0 3.2 0.00 0.00 0.00 89 1011.0
20260509201446 10 311 0.0 3.2 0.00 0.00 0.00 89 1010.8
20260509200451 10 311 0.0 1.6 0.00 0.00 0.00 89 1010.8
20260509195505 11 311 0.0 0.0 0.00 0.00 0.00 89 1010.4
20260509195446 11 311 0.0 1.6 0.00 0.00 0.00 89 1010.6
20260509193445 11 311 0.0 4.8 0.00 0.00 0.00 90 1010.2
20260509192946 11 311 0.0 3.2 0.00 0.00 0.00 90 1010.1
20260509191445 11 311 1.6 4.8 0.00 0.00 0.00 90 1010.1
20260509190445 11 311 0.0 3.2 0.00 0.00 0.00 90 1010.1
20260509185941 11 311 1.6 4.8 0.00 0.00 0.00 90 1009.9
20260509184438 11 311 1.6 4.8 0.00 0.00 0.00 90 1009.8
20260509183438 11 311 0.0 3.2 0.00 0.00 0.00 89 1009.8
20260509182436 11 311 1.6 6.4 0.00 0.00 0.00 89 1009.7
20260509181437 11 311 0.0 4.8 0.00 0.00 0.00 89 1009.7
20260509180944 11 311 0.0 4.8 0.00 0.00 0.00 89 1009.6
20260509175440 11 311 0.0 3.2 0.00 0.00 0.00 89 1009.6
20260509174437 11 311 1.6 3.2 0.00 0.00 0.00 89 1009.6
20260509173437 11 311 0.0 4.8 0.00 0.00 0.00 89 1009.5
20260509172936 11 311 0.0 3.2 0.00 0.00 0.00 88 1009.5
20260509171432 11 311 0.0 3.2 0.00 0.00 0.00 88 1009.5
20260509170433 11 311 1.6 4.8 0.00 0.00 0.00 89 1009.5
20260509165433 11 311 1.6 4.8 0.00 0.00 0.00 89 1009.5
20260509164429 11 311 0.0 3.2 0.00 0.00 0.00 88 1009.5
20260509163430 11 311 1.6 4.8 0.00 0.00 0.00 89 1009.4
20260509162428 11 311 1.6 4.8 0.00 0.00 0.00 89 1009.4
20260509161429 11 311 0.0 4.8 0.00 0.00 0.00 89 1009.5
20260509160424 11 311 1.6 4.8 0.00 0.00 0.00 89 1009.5
20260509155427 11 311 1.6 4.8 0.00 0.00 0.00 89 1009.6
20260509154428 11 308 0.0 3.2 0.00 0.00 0.00 89 1009.5
20260509153926 11 293 1.6 4.8 0.00 0.00 0.00 89 1009.6
20260509152428 11 282 1.6 4.8 0.00 0.00 0.00 89 1009.7
20260509151430 11 282 1.6 3.2 0.00 0.00 0.00 89 1009.7
20260509150427 11 259 0.0 3.2 0.00 0.00 0.00 88 1009.6
20260509145427 11 259 0.0 3.2 0.00 0.00 0.00 88 1009.6
20260509144427 11 258 0.0 3.2 0.00 0.00 0.00 88 1009.6
20260509143424 11 258 0.0 3.2 0.00 0.00 0.00 88 1009.5
20260509142426 11 259 0.0 3.2 0.00 0.00 0.00 88 1009.6
20260509141426 11 259 0.0 1.6 0.00 0.00 0.00 88 1009.5
20260509140424 11 329 0.0 1.6 0.00 0.00 0.00 87 1009.5
20260509135424 11 329 0.0 3.2 0.00 0.00 0.00 88 1009.5
20260509134423 11 329 0.0 3.2 0.00 0.00 0.00 88 1009.5
20260509133423 11 329 0.0 1.6 0.00 0.00 0.00 88 1009.6
20260509132423 12 329 0.0 0.0 0.00 0.00 0.00 88 1009.6
20260509131424 12 329 0.0 0.0 0.00 0.00 0.00 88 1009.6
20260509130420 12 14 0.0 0.0 0.00 0.00 0.00 87 1009.6
20260509125420 12 14 0.0 0.0 0.00 0.00 0.00 87 1009.6
20260509124416 12 14 0.0 0.0 0.00 0.00 0.00 87 1009.6
20260509123414 12 14 0.0 0.0 0.00 0.00 0.00 87 1009.6
20260509122416 12 14 0.0 1.6 0.00 0.00 0.00 87 1009.7
20260509121414 12 14 0.0 3.2 0.00 0.00 0.00 87 1009.7
20260509120415 12 14 1.6 3.2 0.00 0.00 0.00 87 1009.8
20260509115415 12 14 1.6 4.8 0.00 0.00 0.00 87 1009.6
20260509114416 12 14 3.2 4.8 0.00 0.00 0.00 87 1009.6
20260509113418 12 16 3.2 4.8 0.00 0.00 0.00 87 1009.5
20260509112426 12 18 3.2 6.4 0.00 0.00 0.00 87 1009.5
20260509112414 12 18 4.8 4.8 0.00 0.00 0.00 87 1009.5
20260509110416 12 17 4.8 6.4 0.00 0.00 0.00 86 1009.5
20260509105417 12 10 4.8 6.4 0.00 0.00 0.00 85 1009.5
20260509104416 12 26 1.6 6.4 0.00 0.00 0.00 85 1009.4
20260509103912 13 27 0.0 3.2 0.00 0.00 0.00 84 1009.4
20260509102912 13 27 0.0 0.0 0.00 0.00 0.00 84 1009.3
20260509101409 13 27 0.0 3.2 0.00 0.00 0.00 84 1009.2
20260509100410 13 27 3.2 6.4 0.00 0.00 0.00 84 1009.2
20260509095410 13 26 4.8 6.4 0.00 0.00 0.00 83 1009.1
20260509094407 13 76 3.2 4.8 0.00 0.00 0.00 83 1009.0
20260509093409 13 76 3.2 4.8 0.00 0.00 0.00 82 1009.0
20260509092909 13 76 3.2 4.8 0.00 0.00 0.00 81 1008.9
20260509091404 13 76 3.2 4.8 0.00 0.00 0.00 81 1008.8
20260509090405 14 76 3.2 4.8 0.00 0.00 0.00 80 1008.7
20260509085405 14 76 3.2 4.8 0.00 0.00 0.00 79 1008.6
20260509084405 15 76 0.0 1.6 0.00 0.00 0.00 78 1008.4
20260509083405 15 76 1.6 4.8 0.00 0.00 0.00 78 1008.4
20260509082419 15 76 0.0 3.2 0.00 0.00 0.00 77 1008.3
20260509081904 15 76 0.0 3.2 0.00 0.00 0.00 76 1008.1
20260509080404 15 76 1.6 3.2 0.00 0.00 0.00 76 1008.0
20260509075405 15 76 0.0 3.2 0.00 0.00 0.00 75 1007.9
20260509074400 16 76 0.0 3.2 0.00 0.00 0.00 73 1007.8
20260509073359 16 76 1.6 3.2 0.00 0.00 0.00 72 1007.7
20260509072901 16 76 0.0 4.8 0.00 0.00 0.00 71 1007.7
20260509071407 17 140 1.6 4.8 0.00 0.00 0.00 69 1007.6
20260509071400 17 76 1.6 6.4 0.00 0.00 0.00 70 1007.6
20260509065357 17 98 3.2 9.7 0.00 0.00 0.00 69 1007.5
20260509064358 17 145 4.8 11.3 0.00 0.00 0.00 68 1007.3
20260509063358 17 153 4.8 11.3 0.00 0.00 0.00 67 1007.2
20260509062359 18 191 4.8 14.5 0.00 0.00 0.00 66 1007.2
20260509061353 18 109 4.8 14.5 0.00 0.00 0.00 65 1007.0
20260509060854 18 194 6.4 16.1 0.00 0.00 0.00 65 1006.9
20260509055349 18 119 4.8 11.3 0.00 0.00 0.00 64 1006.8
20260509054854 18 144 6.4 11.3 0.00 0.00 0.00 64 1006.8
20260509053350 18 204 4.8 12.9 0.00 0.00 0.00 64 1006.7
20260509052352 18 103 6.4 16.1 0.00 0.00 0.00 63 1006.7
20260509051348 18 163 6.4 16.1 0.00 0.00 0.00 63 1006.6
20260509050349 19 142 8.0 16.1 0.00 0.00 0.00 63 1006.6
20260509045346 19 194 8.0 17.7 0.00 0.00 0.00 62 1006.5
20260509044347 19 136 6.4 14.5 0.00 0.00 0.00 62 1006.5
20260509043346 20 117 6.4 20.9 0.00 0.00 0.00 61 1006.5
20260509042347 20 132 6.4 16.1 0.00 0.00 0.00 61 1006.5
20260509041346 20 114 8.0 17.7 0.00 0.00 0.00 59 1006.4
20260509040848 20 229 6.4 16.1 0.00 0.00 0.00 57 1006.4
20260509035347 21 148 1.6 4.8 0.00 0.00 0.00 51 1006.4
20260509034345 21 155 1.6 6.4 0.00 0.00 0.00 51 1006.4
20260509033345 21 230 3.2 8.0 0.00 0.00 0.00 52 1006.4
20260509032346 21 240 1.6 9.7 0.00 0.00 0.00 52 1006.6
20260509031346 20 277 3.2 11.3 0.00 0.00 0.00 53 1006.7
20260509030346 20 338 3.2 8.0 0.00 0.00 0.00 54 1006.8
20260509025936 19 261 1.6 6.4 0.00 0.00 0.00 56 1006.9
20260509024346 19 144 3.2 9.7 0.00 0.00 0.00 56 1007.0
20260509023347 19 163 3.2 11.3 0.00 0.00 0.00 56 1007.3
20260509022346 19 288 4.8 12.9 0.00 0.00 0.00 56 1007.3
20260509021344 18 229 6.4 17.7 0.00 0.00 0.00 55 1007.5
20260509020846 19 145 3.2 12.9 0.00 0.00 0.00 57 1007.6
20260509015438 19 178 4.8 12.9 0.00 0.00 0.00 58 1007.7
20260509015345 18 180 4.8 11.3 0.00 0.00 0.00 57 1007.7
20260509013345 19 153 1.6 9.7 0.00 0.00 0.00 58 1007.8
20260509012343 18 237 3.2 11.3 0.00 0.00 0.00 59 1008.0